Погода Белый

Погода Белый : погода сейчас, прогноз погоды и архив. Всё, что Вы хотите узнать о погоде Белый!

Поиск расширенной информации на нашем сайте:

Другие новости

Новости СМИ2

Главная страница сайта

Новости сайта

03.07.2017

Напоминаем, что на нашем специализированном сайте Метеоцентр.Азия вы можете получить высокодетализированные автоматические прогнозы погоды по пунктам России, СНГ и мира в авиационном формате (включающие направление и скорость ветра, видимость, явления погоды, количество и форму облачности, нижнюю и верхнюю границу облачности).


Погода Белый - сегодня

Время (UTC), дата Ветер
(°,м/с) 
Видим.   Явления Облачность Т
(°С)
Тd
(°С)
f(%) Тe
(°С)
Pmin
(гПа)
dP
(гПа)
Po
(мм)
O2
(г/м3)
Тmin Tmax R s Состояние
почвы
09 18.06.18 180 (Ю) 20000 м    8/5 1000 м средняя 
[Cu hum|Ac trans]
+24.6 +11.9 45 +29  1015.1  -0.4  742  272           
12 18.06.18 270 (З) 20000 м    8/6 1000 м средняя 
[Cu hum|Ac trans]
+25 +14.2 51 +33  1014.7  -0.4  742  271           
15 18.06.18 310 (СЗ) 20000 м    6/4 1000 м средняя 
[Cu med, cong|Ac trans]
+24.1 +14.1 54 +32  1014.2  -0.5  742  272           
21 18.06.18 250 (З) 10 км    3/0 верхняя 
[Ci]
+17.3 +13 76 +25  1014.8  0.4  742  278           
00 19.06.18 210 (ЮЗ) 10 км    8/4 600 м верхняя 
[Sc|Ci]
+13.8 +12 89 +19  1015  -0.2  741  282           
09 19.06.18 310 (СЗ) 20000 м    8/4 1000 м средняя 
[Cu hum|Ac trans]
+23.7 +14 55 +31  1013.2  -0.2  741  272           
12 19.06.18 290 (З) 20000 м    8/5 1000 м верхняя 
[Cu hum|Ci]
+24.2 +12.4 48 +29  1012.3  -0.9  740  272           
15 19.06.18 280 (З) 20000 м    9/9 600 м 
[Sc]
+23 +11.8 49 +27  1010.9  -1.5  739  272           
21 19.06.18 260 (З) 10 км    8/8 600 м 
[Sc]
+17.5 +10.6 64 +20  1009.6  -0.5  738  277           
03 20.06.18 280 (З) 20000 м    ясно 
+12.8 +9.1 78 +13  1013  0.5  740  283  +10.9         
09 20.06.18 290 (З) 5{12}  20000 м    8/8 1000 м 
[Cu hum]
+19.6 +6.3 42 +20  1012  -0.4  740  277           
21 20.06.18 250 (З) 10 км    ясно 
+13.4 +7 65 +14  1013.2  0.7  740  283           
00 21.06.18 250 (З) 10 км    ясно 
+11 +6.2 72 +11  1013.6  0.2  740  286           
03 21.06.18 260 (З) 20000 м    ясно 
+12.3 +6.1 66 +12  1013.8  0.3  740  284  +10.6         
09 21.06.18 260 (З) 5{10}  20000 м    3/3 1000 м 
[Cu hum]
+22.4 +11 48 +25  1011.9  -0.3  740  273           
21 21.06.18 160 (Ю) 10 км    ясно 
+16.2 +11.6 74 +21  1009.5  -0.7  738  278           
00 22.06.18 160 (Ю) 10 км    8/8 600 м 
[Sc]
+18.4 +11.6 65 +23  1007.5  -1.7  736  276           
21 22.06.18 260 (З) 10 км    8/8 600 м 
[Sc]
+12.9 +11.2 89 +16  1012  739  282           
00 23.06.18 тихо ()   10 км    6/0 верхняя 
[Ci sp]
+10 +8.6 91 +10  1013.4  1.1  740  286           
09 23.06.18 090 (В) 20000 м  {ливн. осадки}  9/9 600 м 
[Sc]
+14 +10 77 +15  1013.2  -0.5  740  282           
12 23.06.18 070 (В) 4000 м  слаб. дождь{ливн. осадки}  10/10 300 м 
[Frnb|Ns]
+13.9 +10.5 80 +16  1012.6  -0.6  740  282           
21 23.06.18 070 (В) 4000 м  слаб. дождь  10/10 300 м 
[Frnb|Ns]
+12.1 +11.2 94 +15  1006.7  -1.5  735  282           
06 24.06.18 150 (ЮВ) 10 км  {ливн. осадки}  9/9 600 м 
[Sc]
+16.1 +15.2 94 +26  1003.4  -0.9  733  276  +11.8      мокрая 
15 24.06.18 220 (ЮЗ) 20000 м    9/9 600 м 
[Sc]
+14.7 +8.5 66 +15  1011.4  1.8  739  281      0.8     
21 24.06.18 210 (ЮЗ) 10 км    ясно 
+10.4 +8.3 87 +11  1014  0.7  740  286           
Время (UTC), дата Ветер
(°,м/с) 
Видим.   Явления Облачность Т
(°С)
Тd
(°С)
f(%) Тe
(°С)
Pmin
(гПа)
dP
(гПа)
Po
(мм)
O2
(г/м3)
Тmin Tmax R s Состояние
почвы

Для получения пояснительной информации подведите курсор к названию столбца.

ПОГОДА Белый - архив

Всё, что Вы хотите узнать о погоде Белый - удобно и подробно!

Выберите нужную дату (начиная с 1 января 2015* года) и нажмите кнопку "Найти".
Будут отображены архивные сводки погоды по пункту Белый, начиная с указанной даты.


Отображать данные в формате CSV (для использования в таблицах Excel)


Внимание! Наш архив погоды предназначен исключительно для личного некоммерческого использования в познавательных целях. Если Вам необходимы официальные справки о состоянии погоды (для производственных, юридических, коммерческих и т.п. целей), обращайтесь в органы Росгидромета.

*Примечание: данная дата относится к архиву по метеостанциям СССР (Россия, СНГ, Балтия).
Архив по метеостанциям Зарубежной Европы и Азии (кроме Китая) хранится 10 дней, по другим регионам земного шара (Китай, Африка, Америка, Австралия, Океания) - 1 день.

Белый - район местоположения метеостанции


Название, широта, долгота, высота метеостанции:
Белый 55.9°ш. 32.9°д. 222 м над ур. моря [Российская Федерация]

Дополнительная информация

В oтличие oт бoльшинства пoгoдных сайтoв мы публикуем пoдрoбную метеoинфoрмацию в детальнoм прoфессиoнальнoм фoрмате.

Характеристики температуры и влажнoсти вoздуха измеряются на высoте 2 м в тени вдали oт зданий и деревьев.
Скoрoсть ветра измеряется на высoте 10 м (на урoвне рoста челoвека скoрoсть ветра ниже в 1.5-2 раза). Если метеoстанция нахoдится в гoрoде или в лесу, тo скoрoсть ветра занижена на 2-4 м/с пo сравнению с oткрытым местoм. Скoрoсть ветра над акватoриями крупных рек и oзёр, а также на вершинах хoлмoв на 2-5 м/с выше, чем в oбычных услoвиях.
Атмoсфернoе давление в разных тoчках местнoсти мoжет значительнo oтличаться oт давления на метеoстанции, в зависимoсти oт услoвий рельефа (при пoдъёме на 10 м давление пoнижается примернo на 1 мм рт.ст.).